Lid_Strength_Index
6 5 5 5 5 4 4 5 5 5 5 5 5 4 3 3 2 4 7 6 6 8 9 8 8 13 12 10 14 13 14 14 15 16 18 16 16 14 15 15 16 17 18 19 18 20 22 14 14 17 16 15 16 17
5 5 5 5 4 4 4 5 5 5 5 5 5 4 3 3 2 4 9 6 2 6 10 7 7 6 7 7 8 10 12 14 12 14 15 17 19 15 18 18 13 18 16 17 16 17 14 14 15 14 15 17 16 16
5 5 5 4 4 4 4 4 5 5 5 5 5 4 3 3 2 3 6 6 6 8 10 10 12 8 4 5 5 12 13 10 13 10 12 14 16 13 18 18 16 14 13 15 14 14 14 15 15 15 15 15 15 15
4 4 4 4 4 4 4 4 5 5 5 5 5 4 3 3 3 3 6 6 5 7 13 14 7 7 5 5 6 7 8 8 9 10 12 14 14 11 14 14 16 15 14 16 14 15 14 14 15 15 15 15 16 16
4 4 4 4 4 3 4 4 5 5 5 5 5 4 3 3 2 3 5 5 3 7 13 13 12 11 9 10 9 9 10 10 13 14 13 12 10 11 14 16 17 14 17 17 17 15 16 15 14 16 16 16 16 16
3 3 3 3 3 3 4 4 5 5 5 5 5 4 3 3 3 6 10 5 3 4 9 14 14 16 18 15 13 13 10 10 11 14 13 11 8 9 20 24 15 15 14 14 16 16 15 14 14 16 16 16 16 17
3 3 3 3 3 3 3 4 4 5 5 5 5 3 4 3 4 10 13 8 3 4 8 14 18 14 18 18 17 12 14 9 13 15 14 11 10 11 19 21 16 15 16 15 16 16 16 16 18 17 17 17 17 19
4 3 3 3 3 3 3 4 4 5 5 5 4 4 4 3 3 6 4 2 3 6 10 18 17 17 16 19 19 21 17 14 17 19 16 16 12 16 23 16 15 16 16 17 17 18 17 17 17 18 18 19 19 19
4 4 3 3 2 2 3 4 4 5 5 5 4 5 6 7 8 7 3 3 4 6 13 17 21 20 16 20 20 21 23 20 23 24 23 19 20 22 18 16 15 17 18 18 18 19 18 19 19 20 21 21 22 20
4 4 3 2 2 2 2 3 4 5 5 5 9 10 12 9 3 4 6 8 9 10 12 17 22 19 16 20 24 25 26 27 22 23 24 26 24 20 16 17 16 17 18 20 20 19 22 23 24 23 25 26 26 25
5 4 3 2 1 1 2 3 4 5 5 10 11 11 10 5 8 10 13 14 18 15 16 19 19 20 17 21 22 20 24 29 25 22 23 29 24 17 20 22 23 23 23 24 25 25 26 26 26 28 25 28 30 30
4 3 2 2 1 1 2 3 4 6 8 7 9 6 8 11 12 14 18 20 20 15 21 18 18 18 20 19 18 24 25 26 24 30 25 26 18 21 22 23 24 28 29 28 30 27 27 25 27 27 27 28 29 31
3 3 2 1 1 0 1 2 2 2 3 6 9 11 14 18 21 21 23 22 23 22 21 22 20 19 20 19 26 26 25 24 29 28 25 21 21 24 23 29 28 34 36 35 31 34 34 31 33 33 27 29 33 32
2 2 2 1 1 -0 0 2 2 2 6 11 12 16 18 23 22 21 22 21 18 20 22 22 23 20 24 21 27 25 29 29 29 28 24 23 21 20 26 33 28 26 30 31 30 32 32 31 29 32 31 31 34 29
2 1 2 1 0 -0 1 2 1 6 9 12 13 19 19 21 25 27 30 24 21 21 19 20 21 17 24 23 24 28 27 28 26 23 23 22 27 23 27 32 29 30 31 31 32 32 29 31 33 30 29 34 36 33
2 1 3 1 0 -0 1 2 7 8 12 12 14 19 22 20 23 26 27 24 23 19 21 19 22 19 23 22 24 23 28 27 22 25 23 28 28 29 28 29 26 29 30 30 34 34 32 33 31 28 30 31 34 34
2 4 1 0 -0 0 2 8 8 12 12 15 18 22 19 20 20 24 24 21 20 19 21 20 22 18 20 23 25 23 24 21 21 23 25 29 24 23 28 30 31 32 32 33 34 34 32 35 38 35 27 29 32 29
5 3 1 0 1 5 10 9 11 14 17 17 18 18 19 21 24 27 27 23 19 21 20 19 17 20 19 24 22 18 19 21 27 24 27 28 30 30 29 26 30 31 31 31 31 32 35 34 31 27 31 30 30 28
3 2 1 -0 4 9 11 12 13 16 19 21 20 19 20 22 23 24 25 23 22 20 17 20 20 22 19 18 17 18 19 21 21 22 26 29 30 29 30 32 31 31 30 29 31 30 31 32 28 30 29 33 29 27
1 1 2 1 5 10 14 16 16 16 19 19 19 19 20 21 23 24 23 21 20 18 19 21 20 19 17 15 15 13 14 18 22 22 22 23 28 32 30 29 28 30 30 32 33 32 32 28 31 32 33 32 33 27
2 2 1 8 12 12 14 17 18 18 20 19 20 18 21 21 21 22 21 21 18 22 22 21 22 20 19 16 16 17 17 17 19 19 19 22 26 27 29 32 32 33 29 31 30 29 31 31 28 30 34 31 31 30
3 3 9 8 13 15 18 18 17 18 19 21 20 20 21 23 23 22 22 21 22 21 23 24 22 23 21 19 19 18 19 19 21 23 22 22 24 26 27 29 29 27 31 31 32 30 29 28 31 33 36 31 29 28
4 7 11 11 15 16 20 18 19 20 19 22 22 22 25 25 24 23 23 25 24 27 25 24 25 27 24 23 22 19 20 21 22 24 25 27 31 33 32 33 33 29 28 29 35 34 30 30 32 33 32 30 29 27
7 13 14 16 16 21 20 21 21 21 21 22 23 27 27 27 25 25 25 29 26 27 26 25 28 25 23 21 20 21 21 23 26 26 30 29 28 29 36 35 37 36 33 33 35 32 33 34 33 33 30 28 26 25
13 17 16 20 21 21 22 22 23 21 24 27 28 28 27 27 27 27 27 26 29 31 31 28 26 25 24 21 20 21 24 24 23 24 30 35 35 32 31 35 34 34 37 33 31 33 32 34 32 31 27 26 26 25
19 22 20 20 22 19 20 21 22 24 25 29 29 29 29 28 26 25 27 28 31 32 32 30 31 29 24 21 20 21 24 28 30 27 29 34 33 29 29 27 28 26 37 37 35 34 31 29 29 27 26 25 25 25
20 23 26 25 22 22 23 25 26 25 28 27 29 29 29 28 27 24 28 31 29 33 35 33 28 29 26 22 22 24 26 31 32 30 35 38 38 37 31 27 28 28 37 38 38 38 34 31 29 27 26 25 24 24
23 23 19 22 24 27 25 27 26 26 28 31 27 26 24 23 21 25 28 29 34 35 34 35 28 26 24 24 24 23 26 32 34 35 34 33 36 36 36 36 35 24 35 37 36 33 33 30 28 27 26 25 24 23
22 23 21 24 25 25 27 26 28 31 29 28 25 26 25 25 29 33 31 30 33 33 30 30 26 24 23 26 25 26 28 32 27 26 27 27 29 26 34 36 36 36 37 37 28 24 24 23 23 23 24 24 23 23
23 29 24 28 25 29 32 34 33 33 34 31 31 29 28 31 34 35 33 32 31 32 31 28 25 22 23 25 24 25 31 38 38 30 26 26 27 32 36 35 34 35 35 33 30 28 24 25 24 24 23 22 22 22
32 28 25 29 32 32 33 35 34 33 34 33 34 28 30 32 32 32 32 32 31 29 26 24 23 23 22 22 24 27 27 32 37 37 38 37 37 37 36 35 37 37 35 32 29 28 27 25 24 24 23 24 23 22
27 31 27 29 29 30 35 35 37 35 34 31 31 35 31 29 28 28 28 27 25 24 24 22 22 26 28 29 32 36 32 36 35 34 34 34 35 34 35 36 35 35 33 29 27 26 26 25 24 24 24 24 23 21
33 35 33 30 29 29 31 30 30 29 31 32 31 33 26 24 23 26 26 27 28 28 28 28 28 28 29 32 35 36 35 37 34 25 23 23 25 26 32 33 34 32 29 27 26 26 25 26 25 25 24 23 22 20